SCP
-0 0 0 -0 0 0 -0 -0 -0 -0 -0 -0 -0 -0 -0 -0 -0 -0 -0 -0 -0 -0 -0 -0 -0 -0 -0 -0 -0 -0 -0 -0 -0 -0 -0 -0 -0 -0 -0 -0 -0 -0 -0
0 0 0 -0 -0 -0 -0 -0 -0 -0 -0 0 -0 -0 -0 -0 -0 -0 -0 0 -0 -0 -0 -0 -0 -0 -0 -0 -0 -0 -0 -0 -0 -0 -0 -0 -0 -0 -0 -0 -0 -0 -0
-0 0 -0 -0 -0 -0 -0 -0 -0 -0 -0 -0 -0 -0 -0 -0 -0 -0 -0 -0 -0 -0 -0 -0 -0 -0 -0 -0 -0 -0 -0 -0 -0 -0 -0 -0 -0 -0 -0 -0 -0 -0 -0
-0 0 -0 -0 -0 -0 -0 -0 -0 -0 -0 -0 -0 -0 -0 -0 -0 -0 -0 -0 -0 -0 -0 -0 -0 -0 -0 -0 -0 -0 -0 -0 -0 -0 -0 -0 -0 -0 -0 -0 -0 -0 -0
-0 -0 -0 -0 -0 -0 -0 -0 -0 -0 -0 -0 -0 -0 -0 -0 -0 -0 -0 -0 -0 -0 -0 -0 -0 -0 -0 -0 -0 -0 -0 -0 -0 -0 -0 -0 -0 -0 -0 -0 -0 -0 -0
-0 -0 -0 -0 -0 -0 -0 -0 -0 -0 -0 -0 -0 -0 -0 -0 -0 -0 -0 -0 -0 -0 -0 -0 -0 -0 -0 -0 -0 -0 -0 -0 -0 -0 -0 -0 -0 -0 -0 -0 -0 -0 -0
-0 -0 -0 -0 -0 -0 -0 -0 -0 -0 -0 -0 -0 -0 -0 -0 -0 -0 -0 -0 -0 -0 -0 -0 -0 -0 -0 -0 -0 -0 -0 -0 -0 -0 -0 -0 -0 -0 -0 -0 -0 -0 -0
-0 -0 -0 -0 -0 -0 -0 -0 -0 -0 -0 -0 -0 -0 -0 -0 -0 -0 -0 -0 -0 -0 -0 -0 -0 -0 -0 -0 -0 -0 -0 -0 -0 -0 -0 -0 -0 -0 -0 -0 -0 -0 -0
-0 -0 -0 -0 -0 -0 -0 -0 -0 -0 -0 -0 -0 -0 -0 -0 -0 -0 -0 -0 -0 -0 -0 -0 -0 -0 -0 -0 -0 -0 -0 -0 -0 -0 -0 -0 -0 -0 -0 -0 -0 -0 -0
-0 -0 -0 -0 -0 -0 -0 -0 -0 -0 -0 -0 -0 -0 -0 -0 -0 -0 -0 -0 -0 -0 -0 -0 -0 -0 -0 -0 -0 -0 -0 -0 -0 -0 0 0 -0 -0 -0 -0 -0 -0 -0
0 0 0 -0 -0 -0 -0 -0 -0 -0 -0 -0 -0 -0 -0 0 0 -0 -0 -0 -0 -0 -0 -0 -0 -0 -0 -0 -0 -0 -0 0 0 0 0 -0 -0 -0 -0 -0 -0 -0 -0
0 0 0 0 0 0 0 0 0 -0 0 -0 -0 -0 0 0 0 0 0 -0 -0 -0 -0 -0 -0 -0 0 0 0 0 0 0 0 0 0 0 -0 -0 -0 -0 -0 -0 -0
0 0 0 0 0 0 0 0 0 0 0 0 0 0 0 0 0 0 0 0 0 0 0 0 0 0 0 0 0 0 0 0 0 0 0 0 -0 -0 -0 -0 -0 -0 -0
0 0 0 0 0 0 0 0 0 0 0 0 0 0 0 0 0 0 0 0 0 0 0 0 0 0 0 0 0 0 0 0 0 0 0 0 -0 -0 -0 0 0 0 0
0 0 0 0 0 0 0 0 0 0 0 0 0 0 0 0 0 0 0 0 0 0 0 0 0 0 0 0 0 0 0 0 0 0 0 0 0 0 0 0 0 0 0
0 0 0 0 0 0 0 0 0 0 0 0 0 0 0 0 0 0 0 0 0 0 0 0 0 0 0 0 0 0 0 0 0 0 0 0 0 0 0 0 0 0 0
0 0 0 0 0 0 0 0 0 0 0 0 0 0 0 0 0 0 0 0 0 0 0 0 0 0 0 0 0 0 0 0 0 0 0 0 0 0 0 0 0 0 0
0 0 0 0 0 0 0 0 0 0 0 0 0 0 0 0 0 0 0 0 0 0 0 0 0 0 0 0 0 0 0 0 0 0 0 0 0 0 0 0 0 0 0
0 0 0 0 0 0 0 0 0 0 0 0 0 0 0 0 0 0 0 0 0 0 0 0 0 0 0 0 0 0 0 0 0 0 0 0 0 0 0 0 0 0 0
0 0 0 0 0 0 0 0 0 0 0 0 0 0 0 0 0 0 0 0 0 0 0 0 0 0 0 0 0 0 0 0 0 0 0 0 0 0 0 0 0 0 0
0 0 0 0 0 0 0 0 0 0 0 0 0 0 0 0 0 0 0 0 0 0 0 0 0 0 0 0 0 0 0 0 0 0 0 0 0 0 0 0 0 0 0
0 0 0 0 0 0 0 0 0 0 0 0 0 0 0 0 0 0 0 0 0 0 0 0 0 0 0 0 0 0 0 0 0 0 0 0 0 0 0 0 0 0 0
0 0 0 0 0 0 0 0 0 0 0 0 0 0 0 0 0 0 0 0 0 0 0 0 0 0 0 0 0 0 0 0 0 0 0 0 0 0 0 0 0 0 0
0 0 0 0 0 0 0 0 0 0 0 0 0 0 0 0 0 0 0 0 0 0 0 0 0 0 0 0 0 0 0 0 0 0 0 0 0 0 0 0 0 0 0
0 0 0 0 0 0 0 0 0 0 0 0 0 0 0 0 0 0 0 0 0 0 0 0 0 0 0 0 0 0 0 0 0 0 0 0 0 0 0 0 0 0 0
0 0 0 0 0 0 0 0 0 0 0 0 0 0 0 0 0 0 0 0 0 0 0 0 0 0 0 0 0 0 0 0 0 0 0 0 0 0 0 0 0 0 0
Wind_Speed_500mb
31 31 31 31 28 31 31 28 25 25 26 30 31 33 36 36 33 33 32 32 32 30 31 30 34 35 33 35 37 38 38 38 37 35 35 36 33 29 24 21 22 26 30
34 34 35 31 29 30 29 28 25 21 23 27 30 33 35 36 35 34 33 30 30 29 29 30 33 33 30 30 33 34 36 37 37 37 36 38 41 37 34 32 27 24 22
30 33 32 30 28 28 27 28 25 21 22 26 29 30 35 38 38 34 31 29 28 27 26 29 30 29 28 30 30 31 33 35 37 36 39 44 44 42 39 38 35 32 28
30 31 32 30 31 29 26 25 24 19 20 23 26 31 36 36 35 33 32 31 28 27 28 28 28 27 28 26 28 29 33 36 36 36 41 42 44 41 39 38 37 35 31
32 29 28 28 26 26 25 23 22 17 17 19 23 29 32 33 35 33 31 28 26 25 26 27 26 26 25 25 26 29 32 33 34 37 41 45 45 44 41 38 37 34 32
33 30 29 27 25 22 19 18 17 15 13 15 19 24 27 30 32 32 32 29 27 26 26 26 25 24 24 25 27 29 30 31 30 35 41 46 47 46 46 40 37 36 34
35 31 29 27 24 22 20 18 14 10 10 13 16 19 23 25 28 31 34 32 29 27 26 26 24 24 24 24 26 27 29 29 30 32 37 43 47 43 43 44 42 45 39
31 32 29 28 26 24 22 18 15 12 10 12 14 15 17 19 23 26 31 31 29 28 26 26 24 24 24 25 26 27 27 27 27 31 36 42 41 43 41 40 44 47 48
33 30 29 28 26 26 25 22 18 15 14 14 13 13 12 13 17 22 27 29 29 29 28 26 24 24 25 26 27 27 26 26 27 32 35 37 35 36 33 30 34 36 37
40 35 32 31 28 25 25 23 20 18 18 15 14 13 9 9 12 17 19 24 28 30 29 28 27 28 28 28 27 27 26 27 31 35 45 47 47 46 47 46 41 35 35
48 48 44 40 33 28 25 22 22 22 20 18 17 15 12 10 11 13 13 14 17 21 25 26 25 26 27 28 28 27 25 29 27 41 48 42 42 43 42 44 46 48 51
52 51 47 43 40 39 36 33 28 25 24 22 20 20 17 13 13 14 7 4 6 11 15 17 19 19 20 23 25 23 25 24 23 33 40 32 38 43 42 42 48 46 52
50 50 48 46 44 40 41 35 34 33 30 25 23 23 21 19 16 18 14 4 1 4 7 9 10 11 13 16 18 21 24 23 25 26 31 28 30 33 42 47 50 49 49
51 50 51 50 50 45 43 44 37 34 32 30 31 25 22 22 21 20 21 14 4 5 7 6 6 7 8 10 12 14 17 19 22 24 26 24 24 29 33 42 44 47 49
53 52 52 53 53 52 49 48 46 41 39 35 33 30 31 25 27 29 25 23 9 12 10 8 10 7 7 8 13 13 16 18 19 21 23 22 24 27 31 34 38 43 44
53 54 53 52 53 54 53 53 52 49 44 46 43 41 40 34 27 29 27 30 16 14 16 12 13 13 12 11 16 16 16 17 18 19 21 22 26 27 27 25 24 26 35
51 52 53 51 52 53 54 55 57 56 50 52 51 48 48 43 35 39 30 29 19 19 20 17 19 17 15 19 20 20 18 17 17 19 21 23 24 25 24 25 26 29 32
54 56 54 54 53 53 53 54 59 53 55 53 51 51 48 48 44 46 38 33 29 26 26 24 23 25 25 25 24 22 19 19 18 18 18 20 22 24 25 28 29 29 30
59 58 58 57 55 53 52 52 55 56 54 56 53 49 48 47 47 48 46 39 32 33 31 29 30 27 32 33 30 27 23 18 14 14 15 17 20 21 23 25 27 27 28
63 63 62 62 59 55 53 53 55 59 55 55 52 52 52 51 47 47 48 46 36 39 37 36 35 38 35 36 36 31 24 15 11 7 9 13 16 20 23 24 25 28 30
70 70 69 67 65 62 60 59 60 65 58 57 52 53 52 51 50 59 51 47 47 40 39 41 43 44 49 42 37 33 24 15 8 4 7 10 14 18 21 23 25 28 32
76 74 73 72 70 66 62 60 61 61 60 55 55 54 58 64 61 50 45 48 46 46 48 48 51 56 51 47 35 24 22 13 10 6 1 5 11 15 17 20 24 28 30
80 79 78 74 73 71 68 63 63 61 61 64 67 64 67 58 62 54 52 51 48 49 50 50 53 50 49 48 37 18 15 14 24 15 8 2 8 13 15 19 23 26 28
79 79 80 79 76 75 72 69 70 71 74 73 67 64 62 62 58 55 52 54 50 50 50 52 52 44 38 39 37 30 21 17 20 20 18 7 7 8 12 16 19 22 25
76 80 82 83 81 79 75 72 70 69 69 63 65 67 68 66 63 56 58 55 53 54 54 55 55 51 42 37 33 28 26 24 22 17 20 18 12 8 9 13 17 19 25
56 65 77 86 87 85 78 76 75 75 76 71 69 72 69 66 63 59 62 56 56 58 58 55 51 47 42 37 32 28 24 24 22 18 18 22 15 7 8 13 18 19 26
Wind_Direction_500mb
152 155 151 149 142 133 129 122 114 99 87 76 72 69 69 72 79 81 80 79 79 76 76 74 78 80 82 74 70 66 62 61 60 59 55 58 69 72 70 69 70 74 72
149 150 153 154 145 135 129 125 118 102 87 82 77 77 77 77 78 78 77 78 79 80 81 82 83 84 83 76 72 66 61 61 60 61 63 66 67 67 65 63 60 61 60
156 150 151 152 145 138 135 129 124 112 94 87 84 83 81 75 72 75 79 81 83 87 88 86 86 82 77 73 69 62 62 65 69 71 71 72 71 70 68 68 68 69 68
159 156 155 153 149 146 141 131 128 116 94 89 86 83 78 78 78 74 70 71 73 75 79 82 85 84 79 73 67 64 66 70 73 74 74 73 70 69 69 68 68 66 66
161 162 157 156 155 152 146 138 131 124 100 95 92 91 87 82 78 76 77 76 77 77 80 83 85 85 83 79 73 73 75 74 73 73 73 69 67 62 65 67 67 66 64
165 164 165 165 162 160 151 142 140 131 112 102 100 95 84 75 70 75 79 79 78 79 81 86 87 86 81 76 74 74 72 71 69 69 70 67 66 61 58 57 58 57 60
168 172 174 173 173 169 165 161 155 147 125 114 106 99 86 76 72 77 78 83 86 86 86 87 89 90 88 84 79 74 70 66 65 68 68 69 63 61 58 56 52 49 46
180 178 180 180 181 180 177 174 173 165 145 132 120 114 88 77 72 76 69 76 84 86 85 82 82 83 83 79 78 76 75 71 70 70 70 72 72 71 71 63 61 58 50
175 186 186 189 191 185 181 180 181 174 167 164 149 134 103 91 85 80 67 65 74 76 76 78 78 77 76 77 76 75 74 74 72 73 70 65 61 63 61 63 57 55 58
177 196 199 194 198 193 189 186 186 186 187 185 173 165 143 121 104 87 73 72 84 79 76 77 77 75 74 75 75 76 79 82 77 70 63 63 61 60 58 56 53 53 50
189 195 201 200 201 204 202 203 203 199 198 196 189 190 179 166 141 120 86 73 84 81 76 72 73 73 69 69 71 73 76 76 77 80 83 77 72 68 64 67 66 64 58
197 199 202 204 201 202 206 208 211 214 209 205 204 202 194 189 171 161 116 49 100 100 88 79 77 76 70 69 73 74 75 77 77 90 96 74 66 68 62 55 58 56 63
203 206 209 209 207 209 210 211 215 213 218 213 212 216 216 204 199 191 178 205 280 166 115 88 84 82 78 76 77 79 81 81 79 79 71 67 68 59 65 60 60 59 59
210 213 216 217 219 222 215 217 212 223 226 223 217 222 225 216 210 205 220 198 203 236 193 153 147 129 120 102 93 88 89 83 76 71 76 70 64 59 61 59 56 55 53
217 220 222 225 226 227 229 221 220 217 228 226 227 226 231 239 225 210 229 212 192 246 260 186 182 173 173 132 131 113 98 87 83 79 75 70 63 60 54 52 52 52 51
224 227 229 230 231 231 231 230 227 227 220 224 223 223 228 235 237 230 222 213 201 239 256 207 195 174 180 135 134 124 116 108 93 83 77 67 58 51 43 38 35 35 43
231 230 232 234 234 234 234 233 230 226 217 223 223 225 230 234 226 240 238 202 211 245 245 222 203 190 174 154 148 138 123 110 99 84 70 57 49 41 37 37 34 28 23
233 234 235 235 236 238 237 235 232 225 217 224 224 228 232 230 231 227 226 230 223 248 243 224 210 183 172 162 153 143 136 119 94 73 55 43 32 30 26 28 25 23 21
237 237 237 238 239 238 238 235 231 228 225 221 224 225 222 223 229 228 223 221 219 247 232 215 191 192 179 169 162 148 134 114 92 64 42 27 24 22 23 25 23 20 18
237 238 238 238 239 238 237 235 229 223 223 221 219 220 220 223 225 224 222 219 227 241 217 202 196 184 185 175 159 146 132 117 92 68 29 28 27 26 23 18 10 8 8
238 239 239 239 238 237 235 232 223 221 221 216 217 219 225 223 225 223 218 221 238 229 212 199 192 191 178 175 164 148 138 136 133 71 41 24 21 17 14 5 2 3 3
240 240 239 240 239 240 239 236 227 224 221 216 217 217 213 216 214 216 230 233 230 215 201 202 198 186 185 179 175 162 155 156 177 187 90 20 11 9 358 358 360 359 360
240 241 240 240 241 240 237 232 222 220 217 214 214 218 222 225 225 225 226 229 218 213 207 203 199 199 190 187 184 183 165 181 184 195 198 259 351 350 347 355 354 354 357
247 244 242 240 239 238 236 231 225 228 219 217 218 216 219 220 219 228 229 221 215 211 206 200 195 199 203 200 196 202 209 201 181 182 205 223 289 316 337 343 345 346 353
251 248 243 239 238 237 234 231 225 225 222 226 218 216 219 220 226 227 222 214 213 207 200 198 195 195 202 210 210 209 199 196 198 190 191 208 229 259 313 331 336 339 346
245 243 242 239 237 236 232 230 225 225 218 218 220 217 218 221 219 219 217 213 209 202 198 199 199 201 200 201 206 203 208 201 204 204 193 200 208 238 308 321 328 327 337
Wind_Speed_850mb
31 31 31 31 28 31 31 28 25 25 26 30 31 33 36 36 33 33 32 32 32 30 31 30 34 35 33 35 37 38 38 38 37 35 35 36 33 29 24 21 22 26 30
34 34 35 31 29 30 29 28 25 21 23 27 30 33 35 36 35 34 33 30 30 29 29 30 33 33 30 30 33 34 36 37 37 37 36 38 41 37 34 32 27 24 22
30 33 32 30 28 28 27 28 25 21 22 26 29 30 35 38 38 34 31 29 28 27 26 29 30 29 28 30 30 31 33 35 37 36 39 44 44 42 39 38 35 32 28
30 31 32 30 31 29 26 25 24 19 20 23 26 31 36 36 35 33 32 31 28 27 28 28 28 27 28 26 28 29 33 36 36 36 41 42 44 41 39 38 37 35 31
32 29 28 28 26 26 25 23 22 17 17 19 23 29 32 33 35 33 31 28 26 25 26 27 26 26 25 25 26 29 32 33 34 37 41 45 45 44 41 38 37 34 32
33 30 29 27 25 22 19 18 17 15 13 15 19 24 27 30 32 32 32 29 27 26 26 26 25 24 24 25 27 29 30 31 30 35 41 46 47 46 46 40 37 36 34
35 31 29 27 24 22 20 18 14 10 10 13 16 19 23 25 28 31 34 32 29 27 26 26 24 24 24 24 26 27 29 29 30 32 37 43 47 43 43 44 42 45 39
31 32 29 28 26 24 22 18 15 12 10 12 14 15 17 19 23 26 31 31 29 28 26 26 24 24 24 25 26 27 27 27 27 31 36 42 41 43 41 40 44 47 48
33 30 29 28 26 26 25 22 18 15 14 14 13 13 12 13 17 22 27 29 29 29 28 26 24 24 25 26 27 27 26 26 27 32 35 37 35 36 33 30 34 36 37
40 35 32 31 28 25 25 23 20 18 18 15 14 13 9 9 12 17 19 24 28 30 29 28 27 28 28 28 27 27 26 27 31 35 45 47 47 46 47 46 41 35 35
48 48 44 40 33 28 25 22 22 22 20 18 17 15 12 10 11 13 13 14 17 21 25 26 25 26 27 28 28 27 25 29 27 41 48 42 42 43 42 44 46 48 51
52 51 47 43 40 39 36 33 28 25 24 22 20 20 17 13 13 14 7 4 6 11 15 17 19 19 20 23 25 23 25 24 23 33 40 32 38 43 42 42 48 46 52
50 50 48 46 44 40 41 35 34 33 30 25 23 23 21 19 16 18 14 4 1 4 7 9 10 11 13 16 18 21 24 23 25 26 31 28 30 33 42 47 50 49 49
51 50 51 50 50 45 43 44 37 34 32 30 31 25 22 22 21 20 21 14 4 5 7 6 6 7 8 10 12 14 17 19 22 24 26 24 24 29 33 42 44 47 49
53 52 52 53 53 52 49 48 46 41 39 35 33 30 31 25 27 29 25 23 9 12 10 8 10 7 7 8 13 13 16 18 19 21 23 22 24 27 31 34 38 43 44
53 54 53 52 53 54 53 53 52 49 44 46 43 41 40 34 27 29 27 30 16 14 16 12 13 13 12 11 16 16 16 17 18 19 21 22 26 27 27 25 24 26 35
51 52 53 51 52 53 54 55 57 56 50 52 51 48 48 43 35 39 30 29 19 19 20 17 19 17 15 19 20 20 18 17 17 19 21 23 24 25 24 25 26 29 32
54 56 54 54 53 53 53 54 59 53 55 53 51 51 48 48 44 46 38 33 29 26 26 24 23 25 25 25 24 22 19 19 18 18 18 20 22 24 25 28 29 29 30
59 58 58 57 55 53 52 52 55 56 54 56 53 49 48 47 47 48 46 39 32 33 31 29 30 27 32 33 30 27 23 18 14 14 15 17 20 21 23 25 27 27 28
63 63 62 62 59 55 53 53 55 59 55 55 52 52 52 51 47 47 48 46 36 39 37 36 35 38 35 36 36 31 24 15 11 7 9 13 16 20 23 24 25 28 30
70 70 69 67 65 62 60 59 60 65 58 57 52 53 52 51 50 59 51 47 47 40 39 41 43 44 49 42 37 33 24 15 8 4 7 10 14 18 21 23 25 28 32
76 74 73 72 70 66 62 60 61 61 60 55 55 54 58 64 61 50 45 48 46 46 48 48 51 56 51 47 35 24 22 13 10 6 1 5 11 15 17 20 24 28 30
80 79 78 74 73 71 68 63 63 61 61 64 67 64 67 58 62 54 52 51 48 49 50 50 53 50 49 48 37 18 15 14 24 15 8 2 8 13 15 19 23 26 28
79 79 80 79 76 75 72 69 70 71 74 73 67 64 62 62 58 55 52 54 50 50 50 52 52 44 38 39 37 30 21 17 20 20 18 7 7 8 12 16 19 22 25
76 80 82 83 81 79 75 72 70 69 69 63 65 67 68 66 63 56 58 55 53 54 54 55 55 51 42 37 33 28 26 24 22 17 20 18 12 8 9 13 17 19 25
56 65 77 86 87 85 78 76 75 75 76 71 69 72 69 66 63 59 62 56 56 58 58 55 51 47 42 37 32 28 24 24 22 18 18 22 15 7 8 13 18 19 26
Wind_Direction_850mb
152 155 151 149 142 133 129 122 114 99 87 76 72 69 69 72 79 81 80 79 79 76 76 74 78 80 82 74 70 66 62 61 60 59 55 58 69 72 70 69 70 74 72
149 150 153 154 145 135 129 125 118 102 87 82 77 77 77 77 78 78 77 78 79 80 81 82 83 84 83 76 72 66 61 61 60 61 63 66 67 67 65 63 60 61 60
156 150 151 152 145 138 135 129 124 112 94 87 84 83 81 75 72 75 79 81 83 87 88 86 86 82 77 73 69 62 62 65 69 71 71 72 71 70 68 68 68 69 68
159 156 155 153 149 146 141 131 128 116 94 89 86 83 78 78 78 74 70 71 73 75 79 82 85 84 79 73 67 64 66 70 73 74 74 73 70 69 69 68 68 66 66
161 162 157 156 155 152 146 138 131 124 100 95 92 91 87 82 78 76 77 76 77 77 80 83 85 85 83 79 73 73 75 74 73 73 73 69 67 62 65 67 67 66 64
165 164 165 165 162 160 151 142 140 131 112 102 100 95 84 75 70 75 79 79 78 79 81 86 87 86 81 76 74 74 72 71 69 69 70 67 66 61 58 57 58 57 60
168 172 174 173 173 169 165 161 155 147 125 114 106 99 86 76 72 77 78 83 86 86 86 87 89 90 88 84 79 74 70 66 65 68 68 69 63 61 58 56 52 49 46
180 178 180 180 181 180 177 174 173 165 145 132 120 114 88 77 72 76 69 76 84 86 85 82 82 83 83 79 78 76 75 71 70 70 70 72 72 71 71 63 61 58 50
175 186 186 189 191 185 181 180 181 174 167 164 149 134 103 91 85 80 67 65 74 76 76 78 78 77 76 77 76 75 74 74 72 73 70 65 61 63 61 63 57 55 58
177 196 199 194 198 193 189 186 186 186 187 185 173 165 143 121 104 87 73 72 84 79 76 77 77 75 74 75 75 76 79 82 77 70 63 63 61 60 58 56 53 53 50
189 195 201 200 201 204 202 203 203 199 198 196 189 190 179 166 141 120 86 73 84 81 76 72 73 73 69 69 71 73 76 76 77 80 83 77 72 68 64 67 66 64 58
197 199 202 204 201 202 206 208 211 214 209 205 204 202 194 189 171 161 116 49 100 100 88 79 77 76 70 69 73 74 75 77 77 90 96 74 66 68 62 55 58 56 63
203 206 209 209 207 209 210 211 215 213 218 213 212 216 216 204 199 191 178 205 280 166 115 88 84 82 78 76 77 79 81 81 79 79 71 67 68 59 65 60 60 59 59
210 213 216 217 219 222 215 217 212 223 226 223 217 222 225 216 210 205 220 198 203 236 193 153 147 129 120 102 93 88 89 83 76 71 76 70 64 59 61 59 56 55 53
217 220 222 225 226 227 229 221 220 217 228 226 227 226 231 239 225 210 229 212 192 246 260 186 182 173 173 132 131 113 98 87 83 79 75 70 63 60 54 52 52 52 51
224 227 229 230 231 231 231 230 227 227 220 224 223 223 228 235 237 230 222 213 201 239 256 207 195 174 180 135 134 124 116 108 93 83 77 67 58 51 43 38 35 35 43
231 230 232 234 234 234 234 233 230 226 217 223 223 225 230 234 226 240 238 202 211 245 245 222 203 190 174 154 148 138 123 110 99 84 70 57 49 41 37 37 34 28 23
233 234 235 235 236 238 237 235 232 225 217 224 224 228 232 230 231 227 226 230 223 248 243 224 210 183 172 162 153 143 136 119 94 73 55 43 32 30 26 28 25 23 21
237 237 237 238 239 238 238 235 231 228 225 221 224 225 222 223 229 228 223 221 219 247 232 215 191 192 179 169 162 148 134 114 92 64 42 27 24 22 23 25 23 20 18
237 238 238 238 239 238 237 235 229 223 223 221 219 220 220 223 225 224 222 219 227 241 217 202 196 184 185 175 159 146 132 117 92 68 29 28 27 26 23 18 10 8 8
238 239 239 239 238 237 235 232 223 221 221 216 217 219 225 223 225 223 218 221 238 229 212 199 192 191 178 175 164 148 138 136 133 71 41 24 21 17 14 5 2 3 3
240 240 239 240 239 240 239 236 227 224 221 216 217 217 213 216 214 216 230 233 230 215 201 202 198 186 185 179 175 162 155 156 177 187 90 20 11 9 358 358 360 359 360
240 241 240 240 241 240 237 232 222 220 217 214 214 218 222 225 225 225 226 229 218 213 207 203 199 199 190 187 184 183 165 181 184 195 198 259 351 350 347 355 354 354 357
247 244 242 240 239 238 236 231 225 228 219 217 218 216 219 220 219 228 229 221 215 211 206 200 195 199 203 200 196 202 209 201 181 182 205 223 289 316 337 343 345 346 353
251 248 243 239 238 237 234 231 225 225 222 226 218 216 219 220 226 227 222 214 213 207 200 198 195 195 202 210 210 209 199 196 198 190 191 208 229 259 313 331 336 339 346
245 243 242 239 237 236 232 230 225 225 218 218 220 217 218 221 219 219 217 213 209 202 198 199 199 201 200 201 206 203 208 201 204 204 193 200 208 238 308 321 328 327 337